Hopewell, New Jersey, United States (08525)
Lat: 40.39N, Lon: 74.76W
Wx Zone: NJZ015
Local Info
Past Weather Observations for Wednesday, February 25, 2015

NOTE: This archive is for the closest National Weather Service station to Hopewell. Information may differ from the station used for current weather conditions.

Click here for Long-term Archive

Time Weather Temperature Dewpoint Humidity Pressure Winds Precip Visibility
23:53
Clear
21°F / -6°C 14°F / -10°C 74% 30.01 in
(1016 mb)
Calm - 9SM
22:53
Clear
21°F / -6°C 12°F / -11°C 68% 29.95 in
(1014 mb)
Calm - 9SM
21:53
Clear
21°F / -6°C 14°F / -10°C 74% 29.98 in
(1015 mb)
Calm - 10SM
20:53
Clear
21°F / -6°C 14°F / -10°C 74% 29.98 in
(1015 mb)
Calm - 9SM
19:53
Clear
27°F / -3°C 16°F / -9°C 64% 29.98 in
(1015 mb)
Calm - 10SM
18:53
Clear
28°F / -2°C 14°F / -10°C 55% 29.92 in
(1013 mb)
Calm - 10SM
17:53
Clear
34°F / 1°C 12°F / -11°C 41% 29.89 in
(1012 mb)
Calm - 10SM
16:53
Clear
36°F / 2°C 12°F / -11°C 38% 29.89 in
(1012 mb)
W 8.1 mph
(W 13 kph)
- 10SM
15:53
Clear
37°F / 3°C 12°F / -11°C 35% 29.89 in
(1012 mb)
Variable 5.8 mph
(Variable 9 kph)
- 10SM
14:53
Clear
37°F / 3°C 12°F / -11°C 35% 29.86 in
(1011 mb)
NW 10.4 mph
(NW 17 kph)
- 10SM
13:53
Clear
36°F / 2°C 12°F / -11°C 38% 29.86 in
(1011 mb)
Variable 6.9 mph
(Variable 11 kph)
- 10SM
12:53
Clear
36°F / 2°C 12°F / -11°C 38% 29.86 in
(1011 mb)
NW 9.2 mph
(NW 15 kph)
- 10SM
11:53
Clear
34°F / 1°C 12°F / -11°C 41% 29.86 in
(1011 mb)
Calm - 10SM
10:53
Clear
34°F / 1°C 12°F / -11°C 41% 29.86 in
(1011 mb)
W 10.4 mph
(W 17 kph)
- 10SM
09:53
Clear
30°F / -1°C 10°F / -12°C 43% 29.86 in
(1011 mb)
Variable 6.9 mph
(Variable 11 kph)
- 10SM
08:53
Clear
27°F / -3°C 9°F / -13°C 46% 29.86 in
(1011 mb)
Variable 5.8 mph
(Variable 9 kph)
- 10SM
07:53
Clear
9°F / -13°C 1°F / -17°C 72% 29.83 in
(1010 mb)
Calm - 10SM
06:53
Clear
3°F / -16°C -2°F / -19°C 78% 29.8 in
(1009 mb)
Calm - 9SM
05:53
Clear
5°F / -15°C °F / -18°C 78% 29.77 in
(1008 mb)
Calm - 10SM
04:53
Clear
7°F / -14°C 1°F / -17°C 78% 29.77 in
(1008 mb)
Calm - 10SM
03:53
Mostly Cloudy
7°F / -14°C 3°F / -16°C 85% 29.74 in
(1007 mb)
Calm - 10SM
02:53
Clear
10°F / -12°C 3°F / -16°C 72% 29.77 in
(1008 mb)
Calm - 10SM
01:53
Clear
10°F / -12°C 5°F / -15°C 79% 29.8 in
(1009 mb)
Calm - 10SM
00:53
Clear
12°F / -11°C 5°F / -15°C 73% 29.8 in
(1009 mb)
Calm - 10SM
Time Weather Temperature Dewpoint Humidity Pressure Winds Precip Visibility


Weather for websites

WeatherForYou.com, LLC is not responsible for any damages or problems caused by this service. Current weather conditions are obtained from the closest station including government and personal stations which may have varying degrees of accuracy. Weather forecasts are derived from the NOAA NDFD. Like all things, this site belongs to Jesus Christ... He just trusts me to maintain it. If you have any questions or comments email webmaster@weatherforyou.com

Copyright © 2015, WeatherForYou.com LLC. All rights reserved.